Погода в Коегоще

Россия / Новгородская область     58°25′30″N   33°52′24″E
темп.,
°C
ветер,
м/с
пор.,
м/с
влажн.,
%
обл.,
%
осадки,
мм/ч
давл.,
гПа
погр.,
м
19 апреля, пн
пн1900:00+7всв41069100 0.0 1027492
03:00+5всв397872 0.0 1028397
06:00+4всв3984100 0.0 1028354
09:00+7всв476818 0.0 1028714
12:00+10в565252 0.0 10271443
15:00+11в56414 0.0 10271783
18:00+10в46380 0.0 10261561
21:00+5в411515 0.0 1027397
20 апреля, вт
вт2000:00+3в411645 0.0 1026330
03:00+2в410734 0.0 1026313
06:000в3107791 0.0 1025316
09:00+4в595497 0.0 1025718
12:00+8вюв584566 0.0 10231458
15:00+9вюв5852100 0.0 10211664
18:00+7вюв5870100 0.0 1020993
21:00+4в41092100 0.1 1019840
21 апреля, ср
ср2100:00+4в41096100 0.9 1016911
03:00+4в4892100 1.1 1013827
06:00+2всв31097100 1.3 1010473
09:00+1св3997100 3.8 1007493
12:00+2всв3896100 2.5 1004415
15:00+2св1399100 3.6 1003193
18:00+2з2399100 0.8 1002194
21:00+1зюз3698100 1.6 1003299
22 апреля, чт
чт2200:00+2ююз31098100 0.3 1004564
03:00+3ю399579 0.3 1005439
06:00+3ю389695 0.0 1006305
09:00+5ююз3788100 0.1 1007494
12:00+9юз4773100 0.0 10081034
15:00+12зюз465985 0.3 10091487
18:00+11ююз35685 0.3 1010381
21:00+7ююв34875 0.3 101159
23 апреля, пт
пт2300:00+5ююв3109277 0.0 1011183
03:00+4ююв279533 0.0 1011137
06:00+4ююв259790 0.0 1011120
09:00+9ю41181100 0.0 1010642
12:00+7з3896100 1.2 1011403
15:00+8з3479100 1.3 1011686
18:00+6зсз2391100 1.1 1010155
21:00+5сз3494100 3.1 1008446